Reno - Stead, NV

8:04 PM PDT on March 27, 2017 (GMT -0700)
Reno - Stead

Weather History for KRTS - August, 2013

Change the Weather History Date:

Thursday, August 1, 2013

  Actual Average (KRNO) Record (KRNO)
Temperature  
Mean Temperature 66 °F -  
Max Temperature 78 °F 92 °F 103 °F (2000)
Min Temperature 51 °F 51 °F 36 °F (1942)
Cooling Degree Days 2    
Growing Degree Days 16 (Base 50)    
Moisture  
Dew Point 20 °F    
Average Humidity 19    
Maximum Humidity 41    
Minimum Humidity 7    
Precipitation  
Precipitation 0.00 in - - ()
Sea Level Pressure  
Sea Level Pressure 30.11 in    
Wind  
Wind Speed 14 mph (West)    
Max Wind Speed 25 mph    
Max Gust Speed 39 mph    
Visibility 10 miles    
Events      
Averages and records for this station are not official NWS values.
T = Trace of Precipitation, MM = Missing Value Source: NWS Daily Summary

Daily Weather History Graph

Daily Weather History Graph

Search for Another Location

Airport or City:

Trip Planner

Search our weather history database for the weather conditions in past years. The results will help you decide how hot, cold, wet, or windy it might be!

Date:

Astronomy

Aug. 01, 2013 Rise Set
Actual Time 5:59 AM PDT 8:12 PM PDT
Civil Twilight 5:28 AM PDT 8:42 PM PDT
Nautical Twilight 4:51 AM PDT 9:18 PM PDT
Astronomical Twilight 4:11 AM PDT 9:59 PM PDT
Moon 1:38 AM PDT (8/1) 4:25 PM PDT (8/1)
Length of Visible Light 15h 13m
Length of Day
14h 13m
Waning Crescent, 22% of the Moon is Illuminated
Aug 1
Waning Crescent
Aug 6
New
Aug 14
First Quarter
Aug 20
Full
Aug 28
Last Quarter

Hourly Weather History & Observations

Time (PDT) Temp. Dew Point Humidity Pressure Visibility Wind Dir Wind Speed Gust Speed Precip Events Conditions
12:15 AM 66.2 °F 32.0 °F 28% 30.14 in 10.0 mi WSW 11.5 mph - N/A   Clear
12:35 AM 66.2 °F 32.0 °F 28% 30.13 in 10.0 mi WSW 15.0 mph 20.7 mph N/A   Clear
12:55 AM 66.2 °F 32.0 °F 28% 30.13 in 10.0 mi WSW 15.0 mph - N/A   Clear
1:15 AM 64.4 °F 32.0 °F 30% 30.13 in 10.0 mi West 15.0 mph - N/A   Clear
1:35 AM 64.4 °F 32.0 °F 30% 30.12 in 10.0 mi West 16.1 mph - N/A   Clear
1:55 AM 64.4 °F 32.0 °F 30% 30.12 in 10.0 mi West 12.7 mph - N/A   Clear
2:15 AM 60.8 °F 32.0 °F 34% 30.12 in 10.0 mi West 13.8 mph - N/A   Clear
2:35 AM 59.0 °F 32.0 °F 36% 30.12 in 10.0 mi West 12.7 mph - N/A   Clear
2:55 AM 62.6 °F 32.0 °F 32% 30.11 in 10.0 mi West 12.7 mph 17.3 mph N/A   Clear
3:15 AM 57.2 °F 32.0 °F 38% 30.11 in 10.0 mi WNW 8.1 mph - N/A   Clear
3:35 AM 57.2 °F 32.0 °F 38% 30.11 in 10.0 mi NW 6.9 mph - N/A   Clear
3:55 AM 59.0 °F 32.0 °F 36% 30.10 in 10.0 mi WSW 17.3 mph 26.5 mph N/A   Clear
4:15 AM 64.4 °F 32.0 °F 30% 30.10 in 10.0 mi WNW 8.1 mph 31.1 mph N/A   Clear
4:35 AM 66.2 °F 32.0 °F 28% 30.10 in 10.0 mi SW 17.3 mph 39.1 mph N/A   Clear
4:55 AM 64.4 °F 32.0 °F 30% 30.10 in 10.0 mi WNW 8.1 mph - N/A   Clear
5:15 AM 64.4 °F 32.0 °F 30% 30.11 in 10.0 mi West 5.8 mph - N/A   Clear
5:35 AM 55.4 °F 32.0 °F 41% 30.11 in 10.0 mi NNW 4.6 mph - N/A   Clear
5:55 AM 55.4 °F 32.0 °F 41% 30.11 in 10.0 mi WSW 11.5 mph 16.1 mph N/A   Clear
6:15 AM 60.8 °F 26.6 °F 27% 30.11 in 10.0 mi West 12.7 mph 17.3 mph N/A   Clear
6:35 AM 60.8 °F 24.8 °F 25% 30.12 in 10.0 mi WSW 12.7 mph - N/A   Clear
6:55 AM 62.6 °F 24.8 °F 24% 30.12 in 10.0 mi WSW 11.5 mph - N/A   Clear
7:15 AM 66.2 °F 24.8 °F 21% 30.11 in 10.0 mi SW 18.4 mph 23.0 mph N/A   Clear
7:35 AM 66.2 °F 23.0 °F 19% 30.12 in 10.0 mi SSW 18.4 mph 27.6 mph N/A   Clear
7:55 AM 66.2 °F 23.0 °F 19% 30.12 in 10.0 mi SW 12.7 mph - N/A   Clear
8:15 AM 68.0 °F 19.4 °F 16% 30.12 in 10.0 mi SW 12.7 mph 19.6 mph N/A   Clear
8:35 AM 68.0 °F 19.4 °F 16% 30.12 in 10.0 mi SW 9.2 mph 16.1 mph N/A   Clear
8:55 AM 68.0 °F 15.8 °F 13% 30.12 in 10.0 mi SW 11.5 mph 20.7 mph N/A   Clear
9:15 AM 69.8 °F 17.6 °F 14% 30.12 in 10.0 mi SW 13.8 mph 19.6 mph N/A   Clear
9:35 AM 69.8 °F 15.8 °F 13% 30.12 in 10.0 mi SW 16.1 mph 21.9 mph N/A   Clear
9:55 AM 71.6 °F 15.8 °F 12% 30.12 in 10.0 mi WSW 18.4 mph - N/A   Clear
10:15 AM 71.6 °F 15.8 °F 12% 30.12 in 10.0 mi SW 12.7 mph - N/A   Clear
10:35 AM 73.4 °F 15.8 °F 11% 30.12 in 10.0 mi WSW 15.0 mph 21.9 mph N/A   Clear
10:55 AM 73.4 °F 8.6 °F 8% 30.12 in 10.0 mi WSW 15.0 mph 26.5 mph N/A   Clear
11:15 AM 75.2 °F 8.6 °F 8% 30.12 in 10.0 mi WSW 18.4 mph 24.2 mph N/A   Clear
11:35 AM 75.2 °F 10.4 °F 8% 30.12 in 10.0 mi SW 19.6 mph 23.0 mph N/A   Clear
11:55 AM 75.2 °F 12.2 °F 9% 30.11 in 10.0 mi WSW 17.3 mph 26.5 mph N/A   Clear
12:15 PM 75.2 °F 12.2 °F 9% 30.11 in 10.0 mi SW 18.4 mph 27.6 mph N/A   Clear
12:35 PM 77.0 °F 12.2 °F 9% 30.10 in 10.0 mi SW 18.4 mph 26.5 mph N/A   Clear
12:55 PM 77.0 °F 14.0 °F 9% 30.10 in 10.0 mi SW 18.4 mph 27.6 mph N/A   Clear
1:15 PM 77.0 °F 14.0 °F 9% 30.10 in 10.0 mi WSW 24.2 mph 28.8 mph N/A   Clear
1:35 PM 77.0 °F 10.4 °F 8% 30.10 in 10.0 mi SW 24.2 mph 29.9 mph N/A   Clear
1:55 PM 77.0 °F 10.4 °F 8% 30.10 in 10.0 mi SW 19.6 mph 25.3 mph N/A   Clear
2:15 PM 77.0 °F 12.2 °F 9% 30.10 in 10.0 mi WSW 19.6 mph 29.9 mph N/A   Clear
2:35 PM 78.8 °F 10.4 °F 7% 30.09 in 10.0 mi WSW 15.0 mph 26.5 mph N/A   Clear
2:55 PM 78.8 °F 10.4 °F 7% 30.09 in 10.0 mi West 20.7 mph 28.8 mph N/A   Clear
3:15 PM 78.8 °F 8.6 °F 7% 30.09 in 10.0 mi WNW 25.3 mph 31.1 mph N/A   Clear
3:35 PM 77.0 °F 8.6 °F 7% 30.09 in 10.0 mi West 13.8 mph 24.2 mph N/A   Clear
3:55 PM 77.0 °F 8.6 °F 7% 30.09 in 10.0 mi WNW 17.3 mph 29.9 mph N/A   Clear
4:15 PM 77.0 °F 8.6 °F 7% 30.08 in 10.0 mi West 17.3 mph 24.2 mph N/A   Clear
4:35 PM 77.0 °F 10.4 °F 8% 30.08 in 10.0 mi West 12.7 mph 23.0 mph N/A   Clear
4:55 PM 77.0 °F 10.4 °F 8% 30.08 in 10.0 mi WNW 18.4 mph 25.3 mph N/A   Clear
5:15 PM 77.0 °F 10.4 °F 8% 30.08 in 10.0 mi WNW 17.3 mph 24.2 mph N/A   Clear
5:35 PM 75.2 °F 12.2 °F 9% 30.09 in 10.0 mi WNW 16.1 mph 24.2 mph N/A   Clear
5:55 PM 75.2 °F 14.0 °F 10% 30.09 in 10.0 mi West 17.3 mph 24.2 mph N/A   Clear
6:15 PM 75.2 °F 15.8 °F 11% 30.09 in 10.0 mi WNW 18.4 mph 24.2 mph N/A   Clear
6:35 PM 73.4 °F 15.8 °F 11% 30.09 in 10.0 mi West 15.0 mph 21.9 mph N/A   Clear
6:55 PM 73.4 °F 14.0 °F 10% 30.09 in 10.0 mi WNW 18.4 mph 24.2 mph N/A   Clear
7:15 PM 71.6 °F 14.0 °F 11% 30.09 in 10.0 mi WNW 17.3 mph 20.7 mph N/A   Clear
7:35 PM 71.6 °F 14.0 °F 11% 30.10 in 10.0 mi West 13.8 mph - N/A   Clear
7:55 PM 69.8 °F 14.0 °F 12% 30.10 in 10.0 mi West 13.8 mph 17.3 mph N/A   Clear
8:15 PM 66.2 °F 17.6 °F 15% 30.11 in 10.0 mi WNW 11.5 mph - N/A   Clear
8:35 PM 66.2 °F 21.2 °F 18% 30.11 in 10.0 mi WNW 11.5 mph - N/A   Clear
8:55 PM 64.4 °F 23.0 °F 21% 30.12 in 10.0 mi West 9.2 mph - N/A   Clear
9:15 PM 62.6 °F 23.0 °F 22% 30.12 in 10.0 mi WNW 11.5 mph - N/A   Clear
9:35 PM 62.6 °F 24.8 °F 24% 30.13 in 10.0 mi West 10.4 mph - N/A   Clear
9:55 PM 60.8 °F 24.8 °F 25% 30.12 in 10.0 mi WNW 17.3 mph - N/A   Clear
10:15 PM 60.8 °F 24.8 °F 25% 30.14 in 10.0 mi ENE 5.8 mph - N/A   Clear
10:35 PM 62.6 °F 24.8 °F 24% 30.14 in 10.0 mi Calm Calm - N/A   Clear
10:55 PM 60.8 °F 26.6 °F 27% 30.14 in 10.0 mi NNE 5.8 mph - N/A   Clear
11:15 PM 57.2 °F 23.0 °F 27% 30.14 in 10.0 mi NNE 5.8 mph - N/A   Clear
11:35 PM 55.4 °F 23.0 °F 29% 30.14 in 10.0 mi NW 4.6 mph - N/A   Clear
11:55 PM 51.8 °F 23.0 °F 33% 30.14 in 10.0 mi West 6.9 mph - N/A   Clear